Date String (YYYY-MM-DD hh:mm:ss) UTC,Instrument flags,Ambient pressure (hPa),Sample flow (lpm),Bypass flow (lpm),Sample temperature (°C),Ambient temperature (°C),ASC tube jacket temperature (°C),LED temperature (°C),Box temperature (°C),Sample RH (%),Span deviation,Mass concentration (μg/m³),Mass concentration (μg/m³),Mass concentration (μg/m³)
DateTimeUTC,F1_M11,P_M11,Q1_M11,Q2_M11,T1_M11,T2_M11,T3_M11,T4_M11,T5_M11,U1_M11,ZSPAN_M11,X0_M11,X2_M11,X1_M11
2023-03-10 16:00:00,,0818.7,5.00,0.00,22.0,20.0,00.0,30.8,23.5,17.6,-001.5,0015.27,0011.53,0011.16
2023-03-10 16:01:00,,0818.7,5.00,0.00,21.9,19.9,00.0,30.8,23.5,17.6,-001.7,0015.16,0011.44,0011.07
2023-03-10 16:02:00,,0818.9,5.00,0.00,21.9,19.9,00.0,30.8,23.4,17.6,-001.6,0015.11,0011.36,0010.99
2023-03-10 16:03:00,,0818.9,5.00,0.00,21.9,20.8,00.0,30.7,23.6,17.5,-001.6,0015.12,0011.32,0010.93
2023-03-10 16:04:00,,0818.8,4.97,0.00,22.0,22.1,00.0,30.7,23.9,17.3,-001.8,0015.17,0011.21,0010.84
2023-03-10 16:05:00,,0818.8,5.00,0.00,22.2,22.7,00.0,30.8,24.1,17.2,-001.7,0015.31,0011.12,0010.75
2023-03-10 16:06:00,,0818.9,4.99,0.00,22.2,22.3,00.0,30.8,24.1,17.2,-001.8,0015.15,0011.07,0010.72
2023-03-10 16:07:00,,0818.8,5.00,0.00,22.2,21.8,00.0,30.9,23.9,17.2,-001.8,0015.15,0011.06,0010.71
2023-03-10 16:08:00,,0818.6,4.99,0.00,22.1,21.2,00.0,30.9,23.8,17.2,-001.6,0015.27,0011.09,0010.71
2023-03-10 16:09:00,,0818.4,5.01,0.00,22.1,20.8,00.0,30.9,23.7,17.2,-001.6,0015.33,0011.09,0010.69
2023-03-10 16:10:00,,0818.6,4.99,0.00,22.1,20.6,00.0,30.8,23.7,17.2,-001.9,0015.35,0011.09,0010.68
2023-03-10 16:11:00,,0818.8,5.00,0.00,22.0,20.4,00.0,30.8,23.6,17.2,-002.0,0015.22,0011.08,0010.67
2023-03-10 16:12:00,,0818.7,5.00,0.00,22.0,20.2,00.0,30.8,23.5,17.3,-002.1,0016.06,0011.08,0010.66
2023-03-10 16:13:00,,0818.5,5.00,0.00,21.9,20.0,00.0,30.8,23.4,17.3,-002.3,0016.01,0011.07,0010.67
2023-03-10 16:14:00,,0818.4,5.00,0.00,21.9,19.9,00.0,30.8,23.4,17.4,-002.3,0015.96,0011.04,0010.66
2023-03-10 16:15:00,,0818.4,5.01,0.00,21.9,19.9,00.0,30.8,23.4,17.4,-002.3,0016.42,0011.05,0010.66
2023-03-10 16:16:00,,0818.5,5.00,0.00,21.9,19.9,00.0,30.7,23.4,17.5,-002.2,0016.04,0011.04,0010.65
2023-03-10 16:17:00,,0818.6,5.00,0.00,21.8,19.8,00.0,30.7,23.3,17.6,-002.2,0016.25,0011.01,0010.64
2023-03-10 16:18:00,,0818.7,5.02,0.00,21.8,20.9,00.0,30.7,23.5,17.5,-002.3,0016.56,0011.00,0010.60
2023-03-10 16:19:00,,0818.7,4.98,0.00,22.0,22.2,00.0,30.7,23.8,17.3,-002.4,0016.53,0010.92,0010.57
2023-03-10 16:20:00,,0818.7,5.02,0.00,22.1,22.8,00.0,30.7,24.0,17.2,-002.4,0016.42,0010.89,0010.54
2023-03-10 16:21:00,,0818.7,5.01,0.00,22.1,22.2,00.0,30.8,23.9,17.1,-002.1,0016.43,0010.89,0010.52
2023-03-10 16:22:00,,0818.7,5.01,0.00,22.1,21.6,00.0,30.8,23.8,17.0,-002.1,0016.38,0010.86,0010.50
2023-03-10 16:23:00,,0818.6,5.01,0.00,22.1,21.2,00.0,30.8,23.7,17.1,-001.7,0015.45,0010.84,0010.47
2023-03-10 16:24:00,,0818.5,4.99,0.00,22.0,20.9,00.0,30.8,23.7,17.0,-001.5,0015.56,0010.82,0010.43
2023-03-10 16:25:00,,0818.5,5.00,0.00,22.0,20.7,00.0,30.8,23.7,17.0,-001.4,0015.62,0010.79,0010.41
2023-03-10 16:26:00,,0818.5,5.01,0.00,22.0,20.5,00.0,30.8,23.6,17.0,-001.4,0015.15,0010.79,0010.42
2023-03-10 16:27:00,,0818.6,5.00,0.00,22.0,20.4,00.0,30.8,23.6,17.2,-001.5,0014.77,0010.85,0010.45
2023-03-10 16:28:00,,0818.5,5.00,0.00,21.9,20.2,00.0,30.8,23.5,17.2,-001.6,0014.50,0010.90,0010.48
2023-03-10 16:29:00,,0818.4,5.00,0.00,21.9,20.1,00.0,30.7,23.5,17.1,-001.5,0014.33,0010.94,0010.52
2023-03-10 16:30:00,,0818.4,4.99,0.00,21.9,20.0,00.0,30.7,23.5,17.1,-001.6,0014.20,0010.98,0010.56
2023-03-10 16:31:00,,0818.4,4.99,0.00,21.8,19.9,00.0,30.7,23.4,17.1,-001.4,0014.24,0011.02,0010.61
2023-03-10 16:32:00,,0818.4,5.00,0.00,21.8,19.8,00.0,30.7,23.3,17.0,-001.6,0014.39,0011.05,0010.65
2023-03-10 16:33:00,,0818.2,5.01,0.00,21.8,20.3,00.0,30.7,23.4,17.0,-001.6,0014.43,0011.09,0010.70
2023-03-10 16:34:00,,0818.2,4.98,0.00,21.9,21.8,00.0,30.7,23.8,17.0,-001.8,0014.43,0011.14,0010.74
2023-03-10 16:35:00,,0818.2,5.00,0.00,22.0,22.6,00.0,30.7,24.0,16.9,-001.8,0014.35,0011.18,0010.78
2023-03-10 16:36:00,,0818.2,5.00,0.00,22.1,22.2,00.0,30.7,24.0,16.9,-001.9,0014.26,0011.20,0010.82
2023-03-10 16:37:00,,0818.4,5.00,0.00,22.1,21.8,00.0,30.7,23.9,16.9,-001.9,0014.28,0011.21,0010.83
2023-03-10 16:38:00,,0818.4,5.00,0.00,22.1,21.4,00.0,30.8,23.8,16.8,-002.0,0014.32,0011.20,0010.82
2023-03-10 16:39:00,,0818.3,4.98,0.00,22.1,21.2,00.0,30.8,23.8,16.8,-002.1,0014.32,0011.20,0010.82
2023-03-10 16:40:00,,0818.2,5.00,0.00,22.0,20.5,00.0,30.8,23.5,17.0,-002.0,0014.30,0011.20,0010.82
2023-03-10 16:41:00,,0818.2,5.00,0.00,21.9,20.2,00.0,30.7,23.4,16.9,-001.9,0014.29,0011.21,0010.82
2023-03-10 16:42:00,,0818.1,5.00,0.00,21.8,20.0,00.0,30.7,23.3,17.1,-001.8,0014.18,0011.20,0010.84
2023-03-10 16:43:00,,0818.0,5.02,0.00,21.8,19.9,00.0,30.7,23.2,17.2,-002.0,0014.19,0011.18,0010.83
2023-03-10 16:44:00,,0818.0,5.00,0.00,21.7,19.8,00.0,30.7,23.2,17.4,-001.9,0014.08,0011.18,0010.83
2023-03-10 16:45:00,,0818.0,5.01,0.00,21.7,19.7,00.0,30.6,23.2,17.4,-001.9,0014.04,0011.16,0010.81
2023-03-10 16:46:00,,0818.3,5.00,0.00,21.7,19.8,00.0,30.6,23.2,17.3,-001.8,0013.99,0011.14,0010.80
2023-03-10 16:47:00,,0818.4,5.02,0.00,21.8,21.1,00.0,30.6,23.5,17.2,-002.1,0013.94,0011.11,0010.78
2023-03-10 16:48:00,,0818.3,4.99,0.00,21.9,22.3,00.0,30.6,23.9,17.0,-002.1,0013.89,0011.10,0010.76
2023-03-10 16:49:00,,0818.1,5.04,0.00,22.0,22.7,00.0,30.7,24.0,16.7,-002.0,0013.93,0011.13,0010.76
2023-03-10 16:50:00,,0818.0,4.97,0.00,22.0,22.1,00.0,30.7,23.9,16.9,-001.9,0013.85,0011.11,0010.74
2023-03-10 16:51:00,,0818.1,5.01,0.00,22.0,21.6,00.0,30.7,23.8,17.0,-001.8,0013.80,0011.06,0010.69
2023-03-10 16:52:00,,0818.1,5.01,0.00,22.0,21.1,00.0,30.7,23.6,16.8,-001.6,0013.85,0011.03,0010.65
2023-03-10 16:53:00,,0818.0,5.01,0.00,21.9,20.7,00.0,30.7,23.5,16.7,-001.5,0013.97,0011.02,0010.60
2023-03-10 16:54:00,,0818.0,5.00,0.00,21.9,20.5,00.0,30.7,23.5,16.7,-001.4,0014.13,0011.03,0010.59
2023-03-10 16:55:00,,0818.0,5.00,0.00,21.9,20.3,00.0,30.7,23.5,16.8,-001.4,0014.12,0011.00,0010.56
2023-03-10 16:56:00,,0818.0,5.00,0.00,21.8,20.1,00.0,30.7,23.4,17.1,-001.2,0014.07,0010.98,0010.56
2023-03-10 16:57:00,,0818.0,5.00,0.00,21.8,19.9,00.0,30.7,23.3,17.3,-001.2,0014.10,0010.97,0010.54
2023-03-10 16:58:00,,0818.0,4.99,0.00,21.7,19.8,00.0,30.7,23.2,17.4,-001.1,0014.18,0010.99,0010.54
2023-03-10 16:59:00,,0818.0,5.01,0.00,21.6,19.6,00.0,30.6,23.1,17.3,-000.8,0014.21,0010.99,0010.55
